KLM22X EGHI-EHAM

Flight info

Callsign KLM22X
Flight time 0h 54m
Altitude 33000
Route GWC DCT OCK UM185 KOBBI DCT REDFA
Aircraft E190/M-SDE3GILORVW/S

Departure

Time 2026-04-30 18:48
Airport Southampton Airport (EGHI)

Arrival

Time 2026-04-30 19:42
Airport Amsterdam Airport Schiphol (EHAM)
Time Latitude Longitude Altitude Speed Heading
2026-04-30 18:23 50.94982 -1.36180 51 ft 0 kts 18°
2026-04-30 18:38 50.94970 -1.36186 51 ft 2 kts 25°
2026-04-30 18:38 50.94958 -1.36199 51 ft 2 kts 44°
2026-04-30 18:38 50.94949 -1.36218 51 ft 2 kts 62°
2026-04-30 18:38 50.94943 -1.36240 51 ft 2 kts 80°
2026-04-30 18:39 50.94943 -1.36264 51 ft 2 kts 98°
2026-04-30 18:39 50.94946 -1.36281 51 ft 0 kts 110°
2026-04-30 18:39 50.94946 -1.36282 51 ft 0 kts 110°
2026-04-30 18:41 50.94946 -1.36281 51 ft 0 kts 110°
2026-04-30 18:42 50.94941 -1.36262 51 ft 3 kts 108°
2026-04-30 18:42 50.94906 -1.36099 51 ft 9 kts 109°
2026-04-30 18:42 50.94911 -1.36004 51 ft 9 kts 34°
2026-04-30 18:45 50.95517 -1.35409 51 ft 18 kts 20°
2026-04-30 18:45 50.95635 -1.35343 51 ft 18 kts 21°
2026-04-30 18:45 50.95760 -1.35275 51 ft 18 kts 13°
2026-04-30 18:46 50.95880 -1.35253 51 ft 8 kts 31°
2026-04-30 18:46 50.95867 -1.35200 51 ft 7 kts 192°
2026-04-30 18:46 50.95819 -1.35237 51 ft 7 kts 201°
2026-04-30 18:46 50.95802 -1.35246 51 ft 0 kts 199°
2026-04-30 18:47 50.95634 -1.35337 51 ft 69 kts 199°
2026-04-30 18:48 50.94899 -1.35748 57 ft 150 kts 196°
2026-04-30 18:48 50.93825 -1.36329 600 ft 174 kts 193°
2026-04-30 18:48 50.92667 -1.37422 1056 ft 203 kts 215°
2026-04-30 18:48 50.91626 -1.38909 1821 ft 198 kts 216°
2026-04-30 18:49 50.90654 -1.40390 1864 ft 188 kts 213°
2026-04-30 18:49 50.89553 -1.41112 1990 ft 167 kts 168°
2026-04-30 18:49 50.88577 -1.40324 2129 ft 166 kts 122°
2026-04-30 18:49 50.88357 -1.38415 2466 ft 198 kts 88°
2026-04-30 18:50 50.88236 -1.36134 2768 ft 222 kts 107°
2026-04-30 18:50 50.87914 -1.33591 3225 ft 245 kts 102°
2026-04-30 18:50 50.87690 -1.30855 3944 ft 256 kts 99°
2026-04-30 18:50 50.87526 -1.28056 4801 ft 260 kts 97°
2026-04-30 18:51 50.87393 -1.25199 5686 ft 262 kts 96°
2026-04-30 18:51 50.87275 -1.22330 6550 ft 266 kts 96°
2026-04-30 18:51 50.87164 -1.19421 7448 ft 269 kts 96°
2026-04-30 18:51 50.87056 -1.16493 8360 ft 271 kts 96°
2026-04-30 18:52 50.86947 -1.13511 9285 ft 274 kts 96°
2026-04-30 18:52 50.86837 -1.10496 10178 ft 278 kts 96°
2026-04-30 18:52 50.86726 -1.07457 11089 ft 280 kts 96°
2026-04-30 18:52 50.86617 -1.04474 11974 ft 283 kts 96°
2026-04-30 18:53 50.86499 -1.01308 12562 ft 297 kts 96°
2026-04-30 18:53 50.86375 -0.97988 13171 ft 310 kts 96°
2026-04-30 18:53 50.86248 -0.94584 13951 ft 316 kts 96°
2026-04-30 18:53 50.86115 -0.91072 14842 ft 320 kts 96°
2026-04-30 18:54 50.85989 -0.87757 15676 ft 322 kts 96°
2026-04-30 18:54 50.85856 -0.84267 16495 ft 325 kts 96°
2026-04-30 18:54 50.85724 -0.80730 17263 ft 330 kts 94°
2026-04-30 18:54 50.86185 -0.77145 17941 ft 345 kts 68°
2026-04-30 18:55 50.87663 -0.74155 18620 ft 360 kts 42°
2026-04-30 18:55 50.92381 -0.70872 20067 ft 375 kts 25°
2026-04-30 18:55 50.94803 -0.69300 20733 ft 379 kts 26°
2026-04-30 18:56 50.99680 -0.66000 21996 ft 388 kts 27°
2026-04-30 18:56 51.02136 -0.64319 22633 ft 392 kts 27°
2026-04-30 18:56 51.04639 -0.62601 23285 ft 396 kts 27°
2026-04-30 18:57 51.09721 -0.59105 24575 ft 402 kts 27°
2026-04-30 18:57 51.12226 -0.57379 25179 ft 405 kts 27°
2026-04-30 18:57 51.14830 -0.55583 25785 ft 408 kts 27°
2026-04-30 18:58 51.20035 -0.51985 26944 ft 414 kts 27°
2026-04-30 18:58 51.22268 -0.50440 27398 ft 417 kts 27°
2026-04-30 18:58 51.25204 -0.48404 27992 ft 421 kts 27°
2026-04-30 18:59 51.30645 -0.44621 29079 ft 427 kts 27°
2026-04-30 19:00 51.38665 -0.38531 30542 ft 436 kts 28°
2026-04-30 19:00 51.41360 -0.36480 31004 ft 438 kts 28°
2026-04-30 19:00 51.46728 -0.32387 31867 ft 444 kts 29°
2026-04-30 19:01 51.52184 -0.28218 32821 ft 447 kts 29°
2026-04-30 19:01 51.54905 -0.26135 33152 ft 441 kts 29°
2026-04-30 19:02 51.60453 -0.21875 33202 ft 465 kts 29°
2026-04-30 19:02 51.65798 -0.16043 33205 ft 463 kts 48°
2026-04-30 19:03 51.69786 -0.08208 33194 ft 453 kts 62°
2026-04-30 19:03 51.72171 0.00973 33207 ft 442 kts 81°
2026-04-30 19:04 51.73322 0.10640 33213 ft 444 kts 79°
2026-04-30 19:05 51.76522 0.29772 33212 ft 443 kts 78°
2026-04-30 19:06 51.79740 0.48795 33212 ft 442 kts 78°
2026-04-30 19:06 51.82132 0.63072 33217 ft 442 kts 78°
2026-04-30 19:07 51.84509 0.77373 33224 ft 441 kts 78°
2026-04-30 19:08 51.87643 0.96414 33227 ft 440 kts 78°
2026-04-30 19:09 51.89990 1.10816 33238 ft 442 kts 78°
2026-04-30 19:09 51.91537 1.20382 33234 ft 442 kts 78°
2026-04-30 19:10 51.94577 1.39324 33227 ft 423 kts 78°
2026-04-30 19:11 51.96768 1.53121 32835 ft 427 kts 78°
2026-04-30 19:11 51.97510 1.57821 32372 ft 426 kts 78°
2026-04-30 19:12 51.98243 1.62472 31900 ft 427 kts 78°
2026-04-30 19:12 51.98972 1.67117 31432 ft 428 kts 79°
2026-04-30 19:12 51.99698 1.71753 30961 ft 428 kts 78°
2026-04-30 19:13 52.01141 1.81003 30030 ft 422 kts 78°
2026-04-30 19:13 52.02563 1.90166 29106 ft 416 kts 78°
2026-04-30 19:13 52.03256 1.94653 28654 ft 413 kts 78°
2026-04-30 19:14 52.03951 1.99170 28201 ft 410 kts 78°
2026-04-30 19:14 52.04632 2.03602 27753 ft 408 kts 78°
2026-04-30 19:14 52.05319 2.08087 27299 ft 405 kts 78°
2026-04-30 19:14 52.05992 2.12499 26855 ft 402 kts 78°
2026-04-30 19:15 52.06668 2.16932 26410 ft 399 kts 78°
2026-04-30 19:15 52.07987 2.25628 25537 ft 394 kts 78°
2026-04-30 19:15 52.08632 2.29902 25112 ft 393 kts 78°
2026-04-30 19:16 52.09284 2.34224 24679 ft 390 kts 78°
2026-04-30 19:16 52.09926 2.38499 24256 ft 387 kts 78°
2026-04-30 19:16 52.11186 2.46915 23411 ft 383 kts 77°
2026-04-30 19:17 52.12223 2.50852 23166 ft 381 kts 62°
2026-04-30 19:17 52.14943 2.58364 23197 ft 386 kts 62°
2026-04-30 19:17 52.16306 2.62131 23189 ft 386 kts 61°
2026-04-30 19:18 52.18577 2.68413 23180 ft 386 kts 62°
2026-04-30 19:18 52.20391 2.73441 23151 ft 378 kts 62°
2026-04-30 19:18 52.21698 2.77070 22659 ft 369 kts 62°
2026-04-30 19:19 52.22993 2.80676 21823 ft 369 kts 62°
2026-04-30 19:19 52.24289 2.84287 20905 ft 371 kts 62°
2026-04-30 19:19 52.26910 2.91602 19140 ft 376 kts 63°
2026-04-30 19:20 52.28212 2.95244 18487 ft 368 kts 63°
2026-04-30 19:20 52.29474 2.98776 17956 ft 358 kts 63°
2026-04-30 19:20 52.31542 3.05930 16693 ft 343 kts 74°
2026-04-30 19:21 52.32351 3.09610 15996 ft 340 kts 73°
2026-04-30 19:21 52.34010 3.16758 14600 ft 334 kts 72°
2026-04-30 19:22 52.35652 3.23745 13281 ft 326 kts 72°
2026-04-30 19:22 52.38044 3.33918 11824 ft 299 kts 72°
2026-04-30 19:23 52.40131 3.42841 10827 ft 274 kts 73°
2026-04-30 19:24 52.41491 3.48682 9788 ft 274 kts 73°
2026-04-30 19:24 52.42168 3.51592 9282 ft 273 kts 73°
2026-04-30 19:24 52.43501 3.57332 8316 ft 268 kts 73°
2026-04-30 19:25 52.45450 3.65751 7312 ft 258 kts 74°
2026-04-30 19:26 52.46738 3.71342 7299 ft 264 kts 74°
2026-04-30 19:26 52.48042 3.77006 7313 ft 264 kts 74°
2026-04-30 19:26 52.48684 3.79803 7301 ft 264 kts 74°
2026-04-30 19:27 52.49972 3.85426 7291 ft 263 kts 74°
2026-04-30 19:27 52.51266 3.91086 7302 ft 262 kts 74°
2026-04-30 19:28 52.51906 3.93892 7314 ft 263 kts 74°
2026-04-30 19:28 52.51807 3.99550 7312 ft 255 kts 112°
2026-04-30 19:29 52.50538 4.04947 7284 ft 246 kts 112°
2026-04-30 19:29 52.49912 4.07545 6919 ft 242 kts 113°
2026-04-30 19:30 52.47747 4.15027 5282 ft 245 kts 141°
2026-04-30 19:30 52.44793 4.17466 4615 ft 221 kts 153°
2026-04-30 19:31 52.42070 4.19464 4321 ft 210 kts 153°
2026-04-30 19:31 52.40750 4.20430 4301 ft 209 kts 153°
2026-04-30 19:31 52.38086 4.22381 4296 ft 208 kts 153°
2026-04-30 19:32 52.36800 4.23315 4110 ft 200 kts 153°
2026-04-30 19:32 52.35506 4.24257 3763 ft 208 kts 153°
2026-04-30 19:32 52.34168 4.25237 3400 ft 209 kts 153°
2026-04-30 19:32 52.32854 4.26194 3063 ft 207 kts 153°
2026-04-30 19:33 52.31565 4.27122 2989 ft 198 kts 153°
2026-04-30 19:33 52.30294 4.28033 2980 ft 200 kts 153°
2026-04-30 19:33 52.29018 4.28948 2992 ft 202 kts 153°
2026-04-30 19:33 52.27728 4.29871 2974 ft 203 kts 153°
2026-04-30 19:34 52.26427 4.30798 2980 ft 202 kts 152°
2026-04-30 19:34 52.25245 4.31985 2976 ft 193 kts 142°
2026-04-30 19:34 52.23264 4.34271 2772 ft 154 kts 142°
2026-04-30 19:35 52.22418 4.35225 2687 ft 138 kts 142°
2026-04-30 19:35 52.21635 4.36095 2364 ft 137 kts 142°
2026-04-30 19:35 52.20831 4.36985 2019 ft 144 kts 140°
2026-04-30 19:35 52.20354 4.38399 1981 ft 152 kts 100°
2026-04-30 19:36 52.20385 4.40171 1994 ft 160 kts 92°
2026-04-30 19:36 52.20444 4.41971 1974 ft 160 kts 92°
2026-04-30 19:36 52.20563 4.45588 1968 ft 159 kts 92°
2026-04-30 19:37 52.20626 4.47389 1979 ft 160 kts 92°
2026-04-30 19:37 52.20687 4.49205 1974 ft 159 kts 92°
2026-04-30 19:37 52.20749 4.51003 1970 ft 159 kts 92°
2026-04-30 19:37 52.20809 4.52822 1976 ft 161 kts 92°
2026-04-30 19:38 52.21026 4.54622 1945 ft 170 kts 68°
2026-04-30 19:38 52.21847 4.56074 1974 ft 175 kts 56°
2026-04-30 19:38 52.22599 4.57587 1982 ft 164 kts 62°
2026-04-30 19:38 52.23212 4.59012 1912 ft 143 kts 66°
2026-04-30 19:39 52.23726 4.60287 1830 ft 125 kts 68°
2026-04-30 19:39 52.24174 4.61429 1684 ft 115 kts 69°
2026-04-30 19:39 52.24598 4.62529 1558 ft 113 kts 69°
2026-04-30 19:39 52.25019 4.63622 1430 ft 115 kts 68°
2026-04-30 19:40 52.25451 4.64743 1284 ft 117 kts 67°
2026-04-30 19:40 52.25882 4.65878 1132 ft 116 kts 68°
2026-04-30 19:40 52.26261 4.66876 992 ft 116 kts 67°
2026-04-30 19:40 52.26713 4.68049 832 ft 117 kts 65°
2026-04-30 19:41 52.27150 4.69161 682 ft 118 kts 63°
2026-04-30 19:41 52.27604 4.70270 517 ft 118 kts 64°
2026-04-30 19:41 52.28039 4.71415 354 ft 117 kts 65°
2026-04-30 19:41 52.28462 4.72549 209 ft 118 kts 63°
2026-04-30 19:42 52.28901 4.73684 57 ft 118 kts 61°
2026-04-30 19:42 52.29320 4.74779 0 ft 100 kts 58°
2026-04-30 19:42 52.29600 4.75516 -4 ft 55 kts 59°
2026-04-30 19:42 52.29768 4.75977 -4 ft 44 kts 58°
2026-04-30 19:43 52.29922 4.76351 -4 ft 33 kts 58°
2026-04-30 19:43 52.30067 4.76572 -3 ft 25 kts 29°
2026-04-30 19:43 52.30168 4.76660 -4 ft 10 kts 29°
2026-04-30 19:44 52.30288 4.76736 -2 ft 7 kts
2026-04-30 19:44 52.30335 4.76714 -1 ft 6 kts 316°
2026-04-30 19:44 52.30349 4.76645 0 ft 6 kts 276°
2026-04-30 19:44 52.30349 4.76567 0 ft 7 kts 269°
2026-04-30 19:45 52.30361 4.76483 0 ft 7 kts 257°
2026-04-30 19:45 52.30343 4.76433 0 ft 1 kts 238°
2026-04-30 19:45 52.30342 4.76431 0 ft 0 kts 238°